Regional Weather Roundup
Issued by NWS

Home | Current Version | Previous Version | Graphics & Text | Print | Product List | Glossary On
Versions: 1 2 3 4 5 6 7 8 9 10 11 12 13 14 15 16 17 18 19 20 21 22 23 24 25 26 27 28
000
ASUS45 KSLC 131810
RWRUT

UTAH REGIONAL WEATHER ROUNDUP
NATIONAL WEATHER SERVICE SALT LAKE CITY UT
1100 AM MST WED DEC 13 2017

UTZ001>011-023>025-131900-

NORTHERN UTAH

CITY           SKY/WX    TMP DP  RH WIND       PRES   REMARKS
BRIGHAM CITY   CLOUDY    23  20  90 CALM      30.37S
DUGWAY         MOSUNNY   16  14  93 S2        30.36F FOG
6HR MIN TEMP:   5; 6HR MAX TEMP:  16; 6HR PCP: TRACE;

HILL AFB       PTSUNNY   24  23  95 W3        30.32F FOG
LOGAN          CLOUDY    24  17  74 N3        30.32F HAZE
OGDEN          PTSUNNY   25  20  81 NW5       30.34S HAZE    WCI  19
SALT LAKE CITY CLOUDY    23  21  92 CALM      30.35F FOG
TOOELE VALLEY  CLOUDY    23  23 100 SW3       30.35F FOG
WENDOVER       LGT SNOW  17  15  92 NE5       30.38R FOG     WCI  10
HEBER CITY     MOCLDY    30  19  64 CALM      30.28F
WEST JORDAN    CLOUDY   N/A N/A N/A CALM      30.33F

$$

UTZ011>015-024>027-131900-

CENTRAL/NORTHEAST UTAH

CITY           SKY/WX    TMP DP  RH WIND       PRES   REMARKS
PROVO AIRPORT  MOSUNNY   26  23  88 CALM      30.35F FOG
MOAB/CANYONLAN PTSUNNY   34   5  29 NW6       30.24F WCI  29
DELTA          MOSUNNY   28  14  54 CALM      30.32F
PRICE          MOSUNNY   43   5  20 CALM      30.22F
RICHFIELD      SUNNY     32   3  29 CALM      30.31F
ROOSEVELT      CLOUDY    30  10  43 CALM      30.28F
VERNAL         CLOUDY    31  10  41 NW3       30.25F

$$

UTZ013>016-019>022-027-131900-

SOUTHERN UTAH

CITY           SKY/WX    TMP DP  RH WIND       PRES   REMARKS
BRYCE CANYON   SUNNY     48   0  13 N6        30.28F
CEDAR CITY     SUNNY     37   9  31 E5        30.27F WCI  33
MILFORD        SUNNY     30  12  47 N3        30.32S
ST GEORGE      PTCLDY    42   7  23 CALM      30.23F
HANKSVILLE     MOSUNNY   32   3  29 CALM      30.28F
KANAB          SUNNY     45   3  18 CALM      30.25F
BLANDING         N/A     40   5  23 CALM      30.29F

$$

REGIONAL REPORTS     COLORADO/ARIZONA

CITY           SKY/WX    TMP DP  RH WIND       PRES   REMARKS
CRAIG, CO      CLOUDY    27  19  72 CALM      30.23F
GRAND JUNCTION CLOUDY    38  13  35 S3        30.23F
RIFLE, CO      CLOUDY    30  15  53 CALM      30.25F
MONTROSE, CO   SUNNY     41  12  30 NE3       30.26F
CORTEZ, CO     SUNNY     42   8  24 SW3       30.21F
COLORADO CITY    N/A     50   9  18 CALM      30.24F
PAGE, AZ       SUNNY     40  11  30 N5        30.23F
GRAND CANYON   SUNNY     57  12  17 NE7       30.24F
KINGMAN, AZ    SUNNY     57   9  14 N7        30.15F
FLAGSTAFF, AZ  SUNNY     51   1  13 E6        30.23F

$$

REGIONAL REPORTS    NEVADA/IDAHO/WYOMING

CITY           SKY/WX    TMP DP  RH WIND       PRES   REMARKS
LAS VEGAS, NV  SUNNY     59   7  12 CALM      30.15F
ELY, NY        SUNNY     39   7  26 SW6       30.31F WCI  35
ELKO, NV       PTSUNNY   20  16  84 W5        30.36F WCI  13
POCATELLO, ID  CLOUDY    22  19  89 W7        30.39R FOG     WCI  13
BURLEY, ID     CLOUDY    24  19  81 N7        30.37R HAZE    WCI  16
FORT BRIDGER,  CLOUDY    43  -1  15 W13G18    30.24F
EVANSTON, WY   CLOUDY    34   9  35 SW10      30.23F WCI  26
ROCK SPRINGS,  CLOUDY    41  -2  16 W17       30.19F

$$




USA.gov is the U.S. government's official web portal to all federal, state and local government web resources and services.